Theta_e
334 334 336 335 335 336 336 337 335 334 336 334 333 332 331 330 329 328 328 328 328 328 327 332 331 330 330 330 330 328 330 327 327 327 328 330 332 336 339 338 338 338 337 336 336 336 335 336 335 333 331 329 329 329 326 326 328 329 330 332 332 332 333 334 336 337 337 335 334 334 333 333 332 330 329 328 327 327 327 326 325 324 324 323 324
334 335 336 335 335 335 336 337 338 336 337 333 332 332 329 329 330 329 329 328 328 327 324 328 330 327 327 330 330 329 330 327 328 327 328 330 331 334 339 337 336 337 337 337 335 336 336 336 336 333 332 331 331 330 329 327 326 328 330 331 331 331 333 334 336 337 336 334 333 332 332 331 330 329 328 327 326 326 326 325 324 324 323 323 323
335 335 336 335 336 336 335 336 337 338 337 336 336 336 332 332 331 330 330 330 328 326 322 325 324 326 326 326 331 330 330 330 329 328 328 329 330 333 335 338 336 335 336 336 337 336 336 336 335 334 332 332 331 330 330 329 327 329 330 331 331 331 333 335 336 337 335 333 332 331 331 330 329 329 328 326 326 325 325 324 323 323 322 322 322
335 337 335 335 336 337 336 336 336 338 338 337 336 337 335 333 333 332 331 332 329 325 324 322 322 324 325 325 329 329 328 330 328 329 329 328 329 331 332 333 337 335 335 335 336 337 336 336 337 335 333 332 332 331 329 330 330 330 331 331 331 331 333 335 337 337 334 332 331 331 331 330 329 328 327 325 325 324 323 323 323 322 322 321 321
334 334 336 335 335 336 335 337 337 339 337 337 337 337 335 334 332 332 331 331 331 325 327 325 323 322 323 324 326 329 329 331 328 330 330 328 328 329 330 331 332 335 334 336 335 336 338 338 337 336 333 333 331 331 330 331 329 328 331 331 331 331 333 335 337 337 334 332 331 331 330 329 328 327 326 325 324 323 323 322 322 321 321 321 321
335 335 335 335 334 335 336 336 337 337 337 336 335 335 335 333 332 331 333 331 328 324 324 322 322 323 323 323 323 326 328 330 329 329 331 330 328 329 329 330 330 330 332 337 336 334 335 338 339 337 334 333 332 331 331 331 331 327 331 332 331 332 333 335 338 336 334 333 332 331 330 328 327 327 325 324 324 323 322 322 321 321 320 320 320
336 334 334 333 333 333 334 336 337 336 335 336 336 335 335 333 333 332 330 329 329 326 324 322 321 321 321 322 322 327 330 329 330 329 330 331 330 329 329 330 329 328 330 330 335 335 334 336 339 338 335 333 333 332 331 328 331 328 330 332 332 333 334 335 338 336 335 334 332 331 330 328 327 326 325 324 323 323 321 321 320 320 320 320 319
334 333 334 335 335 333 333 335 336 336 336 336 338 335 336 336 335 332 330 328 328 326 324 322 322 322 322 323 323 329 329 330 329 330 330 331 331 330 330 330 329 327 330 327 328 331 334 334 335 337 337 335 333 333 333 329 332 328 330 332 333 334 335 336 338 337 335 333 332 331 330 328 327 326 325 324 323 322 321 321 320 320 319 319 319
336 335 334 334 335 333 335 335 337 336 337 335 333 333 334 337 336 335 333 328 327 326 323 322 322 322 322 322 323 325 328 329 329 330 332 329 328 331 332 331 330 334 330 326 327 327 333 334 335 334 335 336 334 332 333 332 332 329 329 333 334 335 335 336 338 336 335 333 332 331 330 328 326 326 325 324 323 322 321 320 320 320 319 319 319
332 334 333 334 334 332 334 336 336 335 335 335 334 334 333 333 335 337 335 331 327 327 326 326 329 326 322 323 322 322 324 327 329 330 329 329 328 327 331 332 331 331 329 327 327 327 329 332 335 333 334 332 334 333 333 333 333 332 329 332 334 335 336 338 338 336 334 333 332 331 330 327 326 325 325 324 323 322 321 320 320 320 319 319 318
328 331 329 330 331 333 333 333 334 334 331 331 333 335 333 333 333 333 337 335 334 333 332 330 331 331 329 324 322 321 322 324 327 328 327 328 328 329 327 330 332 332 329 328 327 326 327 329 330 330 331 333 333 335 334 334 334 333 329 331 334 336 336 338 338 336 335 333 332 331 329 327 326 325 324 324 323 322 321 320 319 319 318 318 317
323 326 327 325 326 329 330 332 332 330 331 331 331 332 332 333 331 332 331 331 334 335 332 329 328 327 326 326 322 322 322 323 324 326 327 327 327 328 327 325 327 330 330 329 328 326 326 327 329 329 330 332 333 333 334 334 334 335 332 329 333 335 337 338 339 337 335 333 332 330 328 326 325 325 324 323 323 322 321 320 319 318 317 317 317
325 324 321 327 325 325 326 326 327 328 327 329 332 333 333 333 332 331 331 329 331 333 334 329 325 322 323 323 321 322 322 322 321 322 324 325 325 325 326 325 324 324 325 328 328 327 326 327 327 329 329 330 330 332 332 332 332 335 334 331 330 335 337 338 338 338 335 334 332 331 328 326 325 325 324 323 323 322 320 319 319 318 317 316 316
322 324 324 321 321 323 325 324 325 325 325 329 329 330 330 329 330 329 332 330 329 332 334 328 323 320 319 319 319 320 322 322 321 322 322 322 324 325 326 325 324 324 324 324 327 328 326 326 327 328 329 329 329 330 331 331 332 334 336 335 330 333 336 338 339 337 336 334 331 331 328 327 325 325 324 323 322 321 320 318 317 317 316 316 315
318 320 322 323 321 321 321 325 323 325 324 322 323 326 327 327 329 328 327 329 331 333 331 327 322 324 322 319 314 315 315 319 322 322 322 322 322 323 325 324 325 323 324 324 324 327 327 326 327 328 328 329 329 328 329 331 330 332 334 336 332 332 335 337 339 339 336 334 332 331 328 327 326 325 324 323 322 320 319 318 317 317 316 315 315
317 317 318 319 319 319 320 321 321 325 324 323 322 322 324 326 327 328 328 325 327 329 332 330 327 324 317 318 316 315 310 314 316 320 322 322 322 322 324 325 324 324 324 324 324 324 327 327 326 328 328 328 329 328 328 328 330 330 329 332 331 331 335 336 339 339 336 334 331 332 329 327 326 325 324 322 321 320 319 318 317 316 316 315 315
317 317 319 317 319 319 320 319 319 321 322 322 322 325 325 325 326 326 326 324 324 328 330 332 330 329 323 320 316 313 313 315 316 316 321 320 321 322 322 323 324 324 321 323 324 324 325 327 327 327 328 328 328 327 327 327 328 330 329 331 331 331 336 336 337 339 337 335 332 332 330 328 326 325 324 322 321 320 319 318 317 316 315 314 314
317 317 317 320 316 318 318 318 318 319 321 322 323 323 325 325 326 326 326 326 324 322 325 329 331 331 329 326 324 318 319 322 317 311 320 322 322 323 323 323 323 322 322 321 323 324 324 325 327 328 328 328 328 327 326 327 329 327 327 327 328 328 327 330 337 339 338 335 333 332 331 329 326 325 324 322 321 320 319 318 317 316 315 315 314
316 316 316 317 317 317 317 318 319 318 320 319 318 320 323 325 326 326 327 326 325 323 323 324 328 330 330 329 328 326 325 321 317 318 315 318 321 321 322 323 323 323 322 322 322 323 323 324 325 327 327 328 328 328 327 326 328 327 328 326 325 325 323 322 325 337 337 336 333 332 331 329 327 325 323 322 321 320 319 318 317 316 316 315 315
316 315 316 317 318 316 316 316 316 317 320 318 316 317 319 321 322 326 326 327 326 325 324 325 325 326 328 326 325 327 327 326 325 321 318 315 316 321 322 322 322 323 323 322 322 322 322 324 324 325 325 327 328 328 327 326 326 326 327 324 322 323 322 321 319 322 329 335 333 333 332 329 328 325 323 322 321 320 319 318 318 318 317 315 315
315 315 315 315 319 316 314 314 315 316 319 318 316 317 317 316 317 318 321 325 326 326 324 324 325 325 326 324 325 324 326 327 327 325 320 317 315 317 318 321 322 321 322 323 322 322 323 324 325 325 325 326 328 328 328 327 326 326 326 322 322 321 320 319 317 319 319 329 332 333 332 330 329 327 324 323 321 320 319 319 319 318 317 316 316
313 314 314 315 315 315 315 314 314 315 319 316 316 316 316 316 317 317 318 319 323 325 325 326 326 326 326 326 324 324 323 323 323 323 322 321 317 315 318 318 317 319 322 321 322 323 323 324 324 324 324 324 326 327 328 328 328 328 326 322 320 320 318 317 315 316 317 323 331 332 332 331 329 327 326 324 323 321 320 320 320 319 318 317 316
314 312 311 314 313 316 314 314 315 316 317 315 315 315 316 316 317 317 316 316 317 321 324 325 326 326 327 326 325 324 323 321 320 322 321 319 318 318 318 319 319 319 321 324 323 324 324 324 324 323 323 324 324 326 325 326 327 327 325 323 320 319 317 316 316 315 316 324 332 332 332 332 329 327 327 325 324 323 322 322 320 320 319 318 317
313 312 312 313 314 313 315 314 314 313 313 314 315 316 315 315 315 315 316 316 317 319 320 322 324 324 324 325 325 325 325 324 324 324 322 320 318 317 317 318 320 321 322 323 325 324 323 323 324 324 322 323 324 325 325 325 325 326 324 322 320 317 314 314 314 315 314 322 327 331 332 332 330 328 327 327 326 324 324 323 322 321 319 318 317
310 310 313 312 313 311 312 312 312 313 314 313 313 314 314 313 313 313 314 314 315 315 315 317 321 323 324 325 326 326 325 326 326 324 323 322 321 318 319 324 318 319 322 324 321 323 323 323 323 324 323 323 324 324 324 324 324 323 323 321 319 316 314 313 313 313 312 315 321 326 328 331 331 329 327 326 326 325 324 321 318 315 315 316 315
311 309 311 312 312 313 312 311 311 311 312 311 311 311 312 313 313 312 312 313 314 314 315 315 316 319 323 324 325 327 326 326 326 325 323 320 320 320 319 319 322 319 322 323 326 321 321 322 323 323 323 322 323 323 322 323 323 321 321 321 318 316 314 312 313 313 312 313 314 317 319 323 326 325 325 324 323 319 316 315 312 310 309 310 313
308 309 312 309 310 310 311 311 310 310 310 309 311 309 310 311 312 312 313 313 314 314 314 315 316 316 317 321 323 324 325 327 327 326 326 323 322 321 319 316 315 316 316 320 324 322 321 323 326 321 322 322 322 322 322 322 322 319 317 320 319 315 313 312 313 313 312 312 313 314 314 315 317 317 316 315 315 316 316 314 311 309 308 308 308
309 309 311 310 309 309 311 310 310 309 309 309 309 309 309 309 309 310 309 313 312 312 313 313 314 314 315 317 320 323 325 326 326 327 327 326 324 322 321 319 315 312 314 314 317 319 324 321 324 325 322 321 322 321 322 322 322 318 320 317 316 315 312 312 312 312 311 311 310 310 311 311 312 312 313 314 316 316 314 312 310 307 306 305 305
310 310 309 309 309 309 308 308 308 308 307 308 308 307 307 307 307 307 307 309 310 310 311 311 312 313 314 315 317 320 323 324 325 325 326 325 325 324 323 320 318 314 312 312 313 314 320 323 320 324 326 321 322 322 322 322 320 319 319 317 316 315 313 313 311 312 312 310 310 310 309 309 310 310 312 315 315 314 311 309 307 306 305 305 304
309 311 309 309 308 313 308 307 307 307 307 306 306 306 306 306 305 306 307 307 307 308 309 310 310 311 312 313 315 316 321 323 323 324 324 325 325 325 324 323 321 317 316 313 313 317 318 321 323 322 324 321 323 324 325 323 318 320 320 318 316 316 312 312 311 312 312 311 311 311 310 309 309 310 313 314 313 311 309 307 305 305 305 304 303
308 307 307 307 306 307 306 305 305 305 305 305 305 305 305 304 304 306 305 305 305 306 307 309 310 311 311 312 313 314 317 321 323 323 323 324 324 324 324 323 321 321 318 316 313 317 321 318 320 323 325 326 326 324 324 323 319 320 320 319 318 314 313 313 311 311 312 311 311 311 310 309 307 308 310 311 311 309 307 307 307 304 303 303 302
306 307 306 306 306 304 305 304 304 304 304 304 304 303 303 303 303 305 304 304 304 304 305 306 307 308 309 310 312 313 315 317 321 323 324 324 323 323 323 323 323 323 321 319 316 316 320 320 320 322 326 324 324 321 320 321 320 317 321 319 319 314 315 316 311 311 310 310 310 310 309 308 307 306 307 308 309 306 305 305 304 303 302 302 302
305 305 305 305 305 304 303 304 303 302 302 302 302 302 302 302 302 302 302 303 303 304 305 305 306 306 307 308 310 312 314 314 316 320 322 323 323 323 323 323 322 323 322 320 318 317 319 321 321 321 325 325 324 323 320 319 319 320 319 319 317 317 317 317 315 309 309 308 308 308 308 308 307 306 305 305 305 304 303 303 302 301 301 301 301
305 305 305 304 304 304 302 302 301 301 302 301 301 301 301 301 300 303 303 302 302 303 303 303 304 306 306 306 307 309 311 312 313 315 318 322 322 321 322 323 323 323 324 321 319 318 317 318 320 321 322 325 322 323 320 317 312 316 317 317 317 317 317 316 315 313 307 308 307 307 307 307 305 304 304 303 302 302 302 301 301 300 300 300 300
305 305 304 304 304 303 302 302 301 300 301 300 300 301 301 300 300 300 302 301 302 302 302 303 304 305 304 304 305 306 309 309 310 312 314 315 320 321 321 322 322 323 323 323 321 319 318 318 320 319 320 323 322 321 322 317 313 315 316 316 316 316 316 315 314 313 306 306 305 305 305 305 304 303 303 302 301 300 299 299 299 299 298 298 299
305 305 304 303 303 302 302 301 300 300 300 300 300 300 301 300 300 301 301 302 302 302 302 302 303 304 304 304 304 305 306 307 308 310 312 313 315 319 320 321 321 322 322 323 322 321 320 319 319 320 319 320 320 322 322 315 313 313 315 315 315 314 313 313 313 311 306 304 304 304 304 304 303 302 302 301 300 299 299 299 299 298 298 298 298
304 303 303 304 302 302 301 301 300 299 300 300 300 300 300 301 302 302 303 303 303 303 303 303 304 304 304 304 304 304 305 305 306 308 309 310 312 313 316 320 319 320 322 322 322 322 320 319 319 319 320 320 322 321 318 312 311 313 311 311 311 310 309 310 311 308 303 304 304 304 304 303 302 302 301 300 299 299 298 299 298 298 298 298 298
302 302 302 301 302 301 300 300 300 300 300 300 300 300 301 302 303 304 304 303 304 303 303 303 303 304 304 304 305 305 305 304 305 307 308 309 311 312 313 315 319 319 318 320 321 321 321 319 319 318 319 319 318 318 317 312 310 309 308 308 308 307 306 305 305 304 304 304 304 304 303 302 302 301 300 300 299 298 298 298 298 298 298 298 297
301 301 300 300 300 300 300 300 300 300 300 301 301 301 302 302 302 302 302 303 303 303 303 303 303 303 303 304 304 305 305 305 305 305 306 307 308 310 311 313 315 318 318 317 318 318 319 319 319 320 318 319 318 314 315 312 311 311 307 304 303 305 305 304 301 302 304 304 303 303 303 302 302 301 300 300 299 299 299 298 298 298 297 297 296
300 300 299 299 298 300 299 300 300 300 300 299 299 300 301 301 301 301 301 301 301 302 303 303 303 303 303 303 303 303 303 304 304 305 305 305 306 306 307 310 312 313 315 317 316 317 317 318 318 318 317 315 313 312 313 310 308 307 307 305 303 300 301 302 302 301 302 302 301 301 301 301 300 300 299 299 299 298 298 298 298 298 297 296 295
301 300 299 299 298 298 298 299 298 299 300 301 302 302 302 302 303 302 302 302 302 302 302 302 303 303 303 303 304 304 305 305 303 302 302 302 303 302 303 304 305 306 308 312 316 316 316 316 316 317 315 314 310 307 306 306 306 306 306 305 304 302 301 300 301 303 302 300 300 300 299 299 298 297 297 297 297 298 298 298 298 298 296 295 294
298 299 298 298 298 298 297 297 297 298 299 299 301 299 298 300 300 300 301 301 301 301 301 301 301 301 302 302 303 304 302 302 301 299 298 298 300 302 302 302 302 302 304 306 309 313 315 314 314 315 314 314 310 308 307 307 308 306 303 302 301 299 299 297 297 299 302 300 298 297 298 298 297 296 296 295 296 298 296 296 295 296 296 294 294
298 297 298 297 296 296 296 296 295 297 298 299 297 294 294 295 297 298 298 298 298 298 299 299 299 300 300 301 301 302 302 301 301 299 297 297 297 297 298 299 301 302 301 302 304 308 311 314 316 315 313 313 312 309 308 307 307 304 303 301 301 298 297 296 295 296 299 299 297 297 296 297 296 294 293 294 295 295 295 296 295 296 295 294 294
297 297 297 296 295 295 296 295 294 295 296 298 295 295 294 294 295 297 296 296 296 296 296 297 297 298 298 299 300 301 301 301 301 301 300 298 297 296 296 296 296 296 297 301 303 304 306 309 311 313 316 314 313 311 308 306 304 303 302 301 300 298 297 297 300 297 297 299 297 295 295 295 295 294 293 293 294 295 295 295 295 294 294 294 294
296 296 295 295 295 294 295 294 293 295 295 296 294 294 294 294 294 295 295 295 295 295 295 295 296 296 297 297 298 299 301 301 303 301 300 300 298 297 298 298 298 297 296 295 296 303 306 307 308 310 313 317 314 313 311 307 306 303 301 300 299 298 299 299 300 300 295 298 296 295 294 293 293 292 292 293 293 293 293 294 294 294 294 294 294
295 294 294 294 293 293 293 293 294 294 295 296 294 294 294 293 293 293 296 296 296 296 295 295 295 295 295 296 296 297 298 300 300 300 300 300 299 299 300 301 304 304 299 298 296 295 299 305 307 307 311 315 315 312 314 309 306 302 301 300 300 298 298 299 300 298 296 298 296 295 293 291 292 292 290 291 292 292 293 294 294 294 294 294 294
292 293 293 292 292 294 292 292 292 294 296 295 293 293 293 292 292 292 294 295 295 295 295 295 295 295 295 296 296 296 297 298 299 299 299 299 299 298 298 298 299 300 302 305 308 306 301 302 305 307 310 313 316 313 312 310 308 306 304 303 302 301 299 298 295 296 294 297 297 295 293 293 291 290 290 291 291 291 292 293 294 294 294 294 294
292 291 291 292 292 291 292 291 292 292 293 293 292 292 292 291 292 293 294 293 293 293 293 293 294 295 295 296 295 295 296 296 296 295 296 298 298 297 297 297 297 298 300 301 300 302 306 307 305 306 309 311 309 315 312 310 309 307 303 301 300 299 298 297 294 292 292 295 296 294 292 290 290 290 290 291 291 290 292 291 293 294 294 294 294
290 290 290 291 291 290 290 291 291 292 292 293 292 292 292 292 292 293 292 292 291 291 291 292 293 293 294 294 294 294 295 295 295 293 293 294 296 296 296 296 296 297 297 300 299 299 299 298 299 300 300 301 302 304 303 302 306 305 304 301 298 298 297 296 295 292 292 292 294 294 293 290 290 290 289 291 290 290 291 291 292 293 293 294 294
289 290 291 290 290 290 290 291 292 292 292 293 293 292 292 291 292 291 291 290 290 290 291 292 292 292 293 296 297 295 294 295 294 293 292 294 295 296 296 295 295 295 296 298 301 303 301 301 300 297 298 299 300 302 301 301 300 302 305 301 301 299 298 298 297 294 293 292 293 295 293 291 292 291 290 290 291 291 292 292 292 292 293 293 293
289 289 291 289 289 289 290 291 296 294 292 293 293 291 291 291 292 291 291 290 289 289 290 290 291 291 292 294 295 295 295 295 293 292 292 294 295 296 296 295 295 294 295 297 298 301 306 308 310 308 302 300 303 308 308 300 300 302 306 306 304 301 299 299 298 293 291 291 294 296 293 291 290 291 291 289 289 292 292 292 292 292 292 292 293
Wind_Speed
4 4 4 4 4 5 4 4 2 0 2 5 5 5 5 5 5 6 5 5 5 5 7 8 7 6 6 6 5 3 2 7 7 5 5 6 6 8 13 13 13 13 14 14 13 13 12 13 12 9 8 8 8 7 6 6 6 5 7 7 6 5 4 4 5 9 12 12 11 11 12 13 13 12 12 13 13 13 13 13 13 13 14 14 15
3 3 3 3 4 3 2 4 1 3 1 3 4 5 6 5 5 5 5 5 5 5 7 8 9 8 6 6 4 3 3 7 8 6 5 6 6 7 13 13 13 14 13 15 15 14 13 13 12 10 9 9 8 7 7 6 6 6 7 6 5 3 4 4 5 10 12 12 11 11 12 13 13 12 13 13 13 13 13 13 13 13 13 14 14
3 3 3 3 3 4 4 5 3 2 3 2 3 3 5 5 5 6 6 5 7 7 6 7 5 4 4 4 4 4 2 2 8 7 6 5 6 6 9 14 13 13 12 13 14 15 14 15 14 12 9 10 9 8 8 7 6 8 8 6 5 3 3 3 6 11 12 12 11 11 12 13 12 12 12 12 13 13 13 12 13 13 14 14 14
2 4 4 3 3 4 5 5 4 2 2 2 2 2 2 4 7 5 5 4 4 6 6 7 6 6 3 3 3 5 3 3 5 9 7 6 6 6 6 8 12 12 12 11 12 14 15 16 15 13 11 11 10 9 9 8 7 8 9 7 5 4 2 3 7 12 12 12 11 12 13 13 12 12 12 12 12 13 13 12 12 13 14 14 14
3 2 1 4 4 3 3 4 3 2 1 4 2 2 2 4 5 6 6 4 2 5 4 4 4 3 5 5 3 5 5 5 5 8 8 7 6 6 5 6 6 10 11 11 10 8 11 14 16 14 12 11 10 10 9 9 9 9 9 7 5 4 3 3 8 13 13 12 11 12 13 13 12 13 12 12 13 13 13 12 12 13 13 14 14
3 3 1 1 2 2 1 1 3 5 5 3 4 4 3 3 5 4 6 6 2 5 3 4 4 3 2 2 4 4 5 6 6 6 8 7 6 6 6 5 5 5 7 11 11 9 8 10 11 14 13 13 12 11 10 9 10 9 10 8 6 5 5 4 10 13 13 13 13 13 13 13 13 12 12 12 12 13 12 12 12 12 13 13 14
4 3 2 0 2 1 5 3 4 2 4 6 5 6 4 4 3 4 6 5 1 3 5 5 5 5 4 3 4 4 4 5 5 5 8 8 8 6 6 6 5 4 5 6 8 10 9 9 8 12 13 13 14 12 12 9 10 9 10 10 8 7 6 5 12 13 13 13 13 14 14 13 13 13 13 13 12 12 12 12 12 12 12 13 13
6 5 2 3 3 4 3 4 4 3 4 4 5 4 2 2 3 3 5 4 2 2 3 6 5 5 5 5 4 4 6 3 4 4 4 8 8 8 7 7 7 7 6 6 6 7 12 10 10 11 12 13 13 13 13 11 11 11 12 11 10 9 7 6 13 14 14 13 14 14 15 14 13 13 13 13 13 12 12 12 12 12 12 13 13
2 5 4 3 3 2 5 4 3 3 3 4 3 2 1 3 4 3 2 5 2 2 2 5 6 6 5 4 4 6 6 6 4 5 4 5 8 9 8 9 9 9 7 6 6 6 10 12 11 11 12 12 13 13 13 12 13 12 13 13 12 11 9 8 14 14 14 14 14 14 15 14 13 13 13 13 13 12 12 12 12 12 12 12 13
1 2 4 5 5 5 4 2 3 2 2 0 2 3 3 3 4 3 3 3 4 0 1 1 0 1 1 2 5 6 6 6 6 4 5 4 5 8 10 9 9 9 9 8 8 8 7 11 14 12 12 12 12 13 14 14 13 13 14 14 13 12 10 10 14 14 15 14 14 15 15 14 14 14 14 13 13 13 12 12 12 12 12 12 12
2 0 1 2 5 5 4 4 2 3 4 5 5 4 5 5 5 4 5 4 3 2 0 2 2 2 1 1 4 5 6 6 7 7 6 5 6 7 7 9 9 9 10 9 8 8 9 8 8 6 8 14 14 13 14 14 14 14 14 15 14 13 12 12 15 15 15 14 14 15 15 15 14 14 14 13 13 13 12 12 12 12 12 12 12
3 1 0 0 1 4 5 5 4 1 3 7 6 4 4 4 4 5 5 5 5 0 2 2 2 1 1 3 4 6 5 4 5 7 7 6 6 6 6 6 8 9 10 9 8 9 8 8 7 8 7 11 15 14 14 13 12 13 16 16 16 15 14 12 17 17 16 15 15 16 15 15 14 14 14 14 13 13 13 12 12 12 12 11 11
0 1 1 0 1 2 2 3 3 3 2 1 2 2 2 3 1 2 6 5 5 1 2 3 3 4 2 2 2 3 5 5 5 5 6 7 6 6 6 6 6 7 8 9 9 9 9 9 9 8 8 7 10 14 15 14 13 14 16 17 17 17 15 14 15 17 16 16 15 16 15 15 15 15 14 14 14 13 13 13 12 12 12 11 11
3 1 2 2 2 2 3 3 3 3 3 4 3 2 2 1 2 3 3 4 3 1 1 1 1 1 1 4 5 5 3 5 6 6 6 6 6 5 6 7 6 6 6 8 9 10 9 9 9 9 8 8 8 7 9 10 10 13 12 14 17 18 17 15 14 18 17 15 16 17 16 16 16 15 15 14 14 13 13 13 13 12 12 12 11
5 4 3 2 1 1 1 3 2 1 1 2 2 3 3 5 5 4 2 3 4 2 2 4 3 2 3 2 3 1 3 2 4 6 7 7 6 6 6 7 8 6 7 7 7 9 9 9 9 9 9 9 8 8 8 10 11 14 15 14 16 17 18 17 14 19 18 17 17 18 17 16 17 16 15 15 14 14 13 13 13 12 12 12 11
3 4 4 4 3 3 3 3 1 3 3 1 1 3 3 4 4 4 3 5 4 2 3 4 4 4 1 4 3 2 3 5 6 6 7 7 8 8 6 8 7 6 6 8 8 7 8 9 10 10 10 9 9 9 9 8 14 16 16 15 15 16 18 17 14 20 20 18 18 18 17 17 17 17 16 15 14 14 14 14 13 12 12 11 11
2 4 3 4 4 3 4 3 4 4 2 0 1 4 4 3 4 4 5 5 5 4 3 4 6 6 4 2 1 2 4 2 2 6 2 4 7 9 8 8 8 8 7 7 8 8 8 9 9 10 10 10 10 10 9 10 10 10 12 14 14 15 15 17 15 20 20 19 20 19 19 18 18 17 16 15 15 15 15 14 14 12 12 11 11
0 1 3 3 4 4 3 3 3 4 3 3 3 3 2 3 4 4 4 4 5 3 5 3 6 6 6 5 3 2 3 2 2 3 2 6 6 8 9 8 7 7 8 7 8 8 8 10 10 10 10 9 10 10 10 10 10 9 8 11 15 14 13 14 14 19 20 20 20 21 20 19 18 17 16 16 16 16 15 15 14 13 12 12 11
1 1 1 3 3 4 4 4 3 3 3 2 3 3 4 3 3 3 5 5 3 5 6 5 3 4 7 8 7 4 1 1 3 1 4 3 3 6 7 9 9 9 9 9 9 8 8 9 10 11 10 9 10 10 10 11 14 13 16 16 17 16 15 14 12 15 20 20 21 21 21 20 18 17 17 17 17 16 16 15 15 13 12 11 11
3 2 1 0 1 3 3 3 3 4 4 4 3 3 4 3 3 3 4 4 5 6 6 5 5 5 5 5 5 6 7 6 5 4 3 5 7 3 5 6 7 9 10 9 9 10 9 8 9 9 8 9 10 10 11 11 11 12 12 17 18 18 17 17 13 12 15 19 21 22 21 21 19 18 18 18 17 17 16 16 15 14 13 11 10
3 3 2 1 0 1 2 3 3 4 3 5 4 4 4 5 6 6 4 2 3 5 4 5 4 7 5 4 8 8 6 6 6 5 6 5 6 7 7 5 4 6 8 9 9 9 9 10 10 10 8 8 10 10 10 10 10 10 12 18 18 19 18 17 15 14 12 16 21 22 21 20 19 19 19 19 18 18 17 16 15 15 13 12 11
1 3 2 2 1 0 0 1 2 3 3 4 4 5 4 4 3 4 5 5 4 4 6 6 6 6 6 6 6 6 7 7 6 7 8 8 8 6 4 4 7 6 6 8 9 8 8 9 9 10 9 8 8 10 10 11 9 9 12 19 19 20 19 19 17 15 15 15 20 22 21 21 20 20 20 20 19 19 18 17 16 15 14 13 12
3 3 2 1 2 1 0 0 1 2 3 5 4 4 4 4 4 4 4 5 6 5 5 5 6 6 6 7 8 8 8 8 7 6 7 6 6 9 10 8 5 5 5 7 8 9 7 7 9 9 9 9 8 9 9 10 11 13 17 19 20 21 20 20 19 17 17 17 19 22 22 21 20 21 21 20 20 19 19 18 17 16 15 14 12
4 3 3 4 3 3 2 2 1 2 3 4 5 5 4 3 5 6 6 5 5 6 5 5 5 5 5 5 7 7 8 8 8 8 7 7 6 8 7 5 7 4 2 2 3 5 7 6 7 9 8 9 9 9 9 10 10 18 15 19 20 21 21 21 21 19 19 20 19 21 22 21 21 21 21 21 20 20 19 18 17 16 15 14 13
4 3 3 3 3 2 1 1 1 1 2 2 3 4 6 7 6 5 5 5 5 5 6 6 5 5 6 5 6 7 8 7 7 6 5 4 6 8 8 4 6 3 2 0 1 2 3 5 5 6 7 8 9 9 9 9 8 14 17 14 21 20 22 21 20 20 20 20 20 19 19 20 22 21 22 21 20 20 19 17 15 14 13 13 13
3 4 3 3 2 2 2 1 0 1 2 3 3 3 4 4 5 7 6 5 5 5 6 6 5 5 5 6 5 7 8 8 8 7 7 7 8 9 7 3 3 6 2 0 2 4 4 4 5 7 8 9 9 9 9 10 9 14 18 12 17 21 21 20 20 21 22 20 20 19 18 17 18 19 19 20 19 16 15 14 13 13 12 11 11
3 2 2 2 2 1 0 0 1 2 2 3 3 3 3 3 3 5 6 6 6 6 6 7 7 6 6 5 6 6 7 7 7 9 7 8 9 7 5 7 6 5 5 3 3 6 6 4 4 3 7 8 9 9 10 9 11 16 17 12 12 21 21 21 20 21 22 22 21 19 17 16 17 17 17 16 16 15 13 13 12 12 11 10 9
2 2 2 3 3 2 1 1 2 2 3 2 2 2 3 4 5 5 6 5 7 7 7 7 7 7 7 7 6 7 7 7 7 7 8 8 7 7 8 8 8 9 6 6 4 6 5 5 5 6 4 7 7 8 10 11 9 16 16 9 9 13 20 21 21 21 22 21 20 19 18 16 16 17 17 15 15 14 12 13 13 13 11 10 9
2 2 1 1 2 2 1 2 2 3 3 3 3 3 3 3 4 4 4 4 5 6 6 7 7 7 7 8 8 7 7 7 7 7 7 7 7 8 8 10 10 10 9 9 7 5 4 6 5 5 7 4 7 7 8 9 11 13 10 9 11 11 18 22 23 23 23 22 21 19 17 16 16 17 17 16 15 14 14 14 14 13 12 11 10
2 2 1 1 1 1 2 3 4 4 4 4 4 4 3 3 3 3 3 3 4 5 6 7 8 8 8 8 8 9 7 7 7 7 7 7 9 8 6 7 8 10 10 10 9 6 5 4 6 6 4 4 4 6 6 8 12 15 10 10 11 12 20 22 23 24 24 23 23 21 19 17 17 18 17 16 16 15 15 15 14 13 12 11 11
3 2 1 1 2 3 3 3 2 2 2 3 3 3 3 3 3 4 3 3 4 5 5 6 7 7 8 10 9 9 9 8 8 7 7 7 7 6 8 8 8 9 10 8 9 6 6 8 5 5 3 2 3 3 3 5 10 15 12 11 11 15 21 19 22 23 24 24 23 22 20 18 17 18 18 17 16 16 15 15 12 13 12 12 11
3 2 2 3 3 4 3 3 2 2 2 2 2 3 3 3 3 3 3 3 4 5 6 5 7 8 9 10 9 8 8 8 8 7 8 7 7 8 8 8 8 8 8 9 10 12 6 7 6 4 2 3 3 3 2 3 5 11 8 9 11 15 14 12 20 22 23 22 22 23 21 19 19 17 16 16 17 17 16 15 15 13 13 12 12
3 3 3 4 4 4 4 4 4 4 4 4 3 3 2 3 3 3 3 3 4 5 4 6 5 7 9 10 10 9 8 9 7 7 7 7 7 8 8 8 8 7 8 9 11 11 9 5 6 4 3 5 3 3 4 3 4 3 5 6 10 11 11 10 12 17 20 21 20 21 22 21 19 19 18 17 17 17 16 15 14 14 13 13 12
3 4 4 4 4 4 4 4 4 4 4 4 4 3 3 3 3 3 4 4 5 5 5 7 8 7 7 9 10 10 10 10 9 9 8 7 8 8 8 8 9 9 8 9 10 10 14 4 7 3 4 3 4 4 5 5 3 3 7 7 6 9 11 9 10 11 18 19 20 20 22 21 19 18 19 19 18 17 16 15 14 14 13 13 12
3 4 4 4 4 4 4 4 3 3 3 3 2 2 3 3 4 4 4 4 5 6 6 8 9 9 9 9 10 10 9 10 10 10 9 9 8 9 10 8 9 10 9 10 10 11 12 11 6 6 5 6 7 7 7 3 2 2 6 7 8 7 7 9 10 9 17 18 18 17 18 20 21 19 18 18 17 17 16 16 15 14 14 14 13
4 4 4 4 3 4 4 3 3 3 3 3 3 3 4 4 4 5 4 5 6 7 8 9 9 9 9 9 9 9 9 10 10 10 10 9 9 8 8 10 9 11 10 9 11 10 10 11 6 9 7 8 3 6 8 8 6 5 4 4 4 7 7 7 8 8 12 16 18 19 17 16 17 18 18 17 17 16 15 15 15 15 14 14 13
4 3 2 1 1 1 3 3 4 3 3 3 3 4 4 4 4 5 5 6 6 7 8 9 9 10 10 11 11 10 10 11 11 10 10 11 10 10 10 8 8 10 9 9 10 9 11 12 9 6 7 7 5 8 9 10 6 4 2 3 5 7 7 5 6 5 10 17 18 18 19 19 18 17 17 17 16 16 15 15 15 16 15 14 13
3 2 1 1 1 3 2 2 2 3 3 3 4 4 4 3 4 6 7 8 8 8 8 9 9 8 8 9 9 9 10 10 10 11 10 11 10 11 11 10 8 8 10 10 9 10 11 11 9 6 5 8 4 6 10 10 11 7 5 4 3 2 6 7 5 6 4 5 8 9 12 15 17 19 18 17 17 17 16 16 16 15 15 14 14
2 1 1 1 2 1 2 2 3 4 4 4 4 4 4 4 5 6 6 7 7 7 8 9 10 10 9 9 9 9 10 10 11 12 12 12 10 11 11 11 10 8 7 8 9 10 10 11 10 10 8 8 8 9 8 9 10 10 12 8 4 4 4 7 7 3 5 6 7 11 13 13 14 12 16 18 18 17 16 15 15 15 15 14 14
1 1 1 2 3 2 2 2 2 2 3 4 4 5 5 6 6 7 8 8 9 9 9 9 9 10 10 11 11 11 12 11 11 11 11 12 10 11 11 11 11 10 9 8 8 9 10 10 10 10 9 9 5 0 6 9 8 4 7 10 13 9 8 5 6 9 7 6 8 5 3 6 9 12 14 14 15 16 16 15 16 14 15 14 13
2 2 2 2 2 2 1 1 2 2 3 4 3 4 6 7 7 8 8 8 9 10 10 9 8 8 8 8 9 9 11 14 15 14 15 14 12 13 13 11 12 12 13 10 7 7 7 7 9 8 7 5 4 8 10 9 12 14 12 9 8 8 8 6 4 2 5 9 6 6 7 8 9 8 6 7 9 13 14 14 10 13 15 13 13
3 4 4 4 2 1 0 1 1 2 2 3 5 10 9 6 7 7 8 8 9 9 10 11 11 11 12 11 11 15 14 14 14 15 16 16 17 14 14 13 13 12 12 12 12 9 7 9 8 8 8 7 8 10 12 14 12 7 8 8 9 8 7 4 1 3 4 7 9 10 8 7 9 8 9 11 8 11 9 9 10 11 13 13 13
4 4 4 3 1 1 1 2 2 2 3 3 8 8 9 10 7 6 7 8 8 9 10 10 11 11 11 11 11 14 17 17 16 15 14 17 18 19 21 22 19 14 13 13 13 12 11 10 7 7 9 9 10 10 12 12 11 13 13 12 10 10 12 12 12 5 6 10 10 9 9 8 8 10 7 7 8 9 8 8 13 15 14 14 13
2 2 2 2 1 1 1 1 2 3 3 6 9 10 11 10 8 8 8 8 8 9 9 11 11 11 12 11 11 9 11 12 12 13 15 17 16 17 18 19 19 21 18 15 14 13 13 11 11 11 8 8 9 10 9 8 10 9 10 11 11 14 12 13 11 13 11 15 11 11 11 6 7 7 8 9 8 8 9 11 15 14 14 15 15
2 2 1 1 1 1 1 3 4 4 4 7 10 12 11 12 13 12 9 9 9 9 9 10 11 11 11 12 12 10 10 14 13 12 11 12 15 19 20 20 21 21 21 20 20 18 14 13 13 13 12 8 7 10 13 14 13 14 11 9 10 12 14 15 14 11 7 17 12 9 11 9 10 10 10 8 8 7 8 12 16 16 17 16 16
1 2 0 0 1 1 2 4 4 4 5 7 12 12 13 14 15 13 9 10 10 10 11 11 10 11 11 12 12 12 11 11 11 11 10 11 12 13 15 15 13 14 17 21 21 22 21 16 15 16 15 11 10 7 9 11 13 13 13 15 14 13 14 14 4 4 6 12 16 13 8 9 11 10 11 9 8 7 8 10 16 16 17 16 16
2 0 0 1 2 2 3 4 4 5 4 9 11 11 11 12 12 10 7 7 8 10 10 10 11 12 12 12 13 14 13 13 12 13 13 13 13 13 15 16 17 16 15 14 11 10 11 13 15 16 16 14 13 8 11 8 11 14 18 20 19 15 6 6 7 7 8 11 9 7 13 7 7 9 10 8 7 8 7 10 16 17 17 17 16
2 2 2 1 2 3 4 4 5 6 5 9 10 10 10 10 11 7 7 8 9 9 10 10 11 12 12 13 13 14 14 14 16 18 17 14 14 16 16 16 16 16 16 15 16 17 13 11 13 15 15 16 17 12 11 13 12 5 3 8 8 8 9 7 6 6 8 8 10 10 7 7 9 11 9 6 7 7 7 7 14 18 17 17 16
3 3 1 1 2 3 4 4 5 5 5 7 10 12 13 14 10 7 7 8 8 10 10 10 11 12 13 13 13 14 14 15 16 17 17 16 15 17 17 16 14 14 17 15 16 18 19 18 18 20 22 22 22 20 19 21 16 11 9 5 5 7 9 10 6 6 9 10 12 12 6 4 8 9 6 5 7 7 7 8 8 15 18 17 15
3 1 1 1 2 3 4 5 5 7 8 9 12 13 13 13 10 8 7 8 9 10 11 11 11 12 13 21 23 17 16 16 16 17 17 15 15 15 15 15 16 16 16 13 11 12 17 19 18 18 21 22 23 22 21 22 21 16 14 15 13 10 11 11 12 10 5 8 11 11 8 6 7 7 7 3 4 4 7 7 8 10 16 14 16
2 1 0 1 2 3 4 5 9 10 9 10 12 12 12 12 11 8 8 8 11 11 12 13 12 12 13 14 21 20 18 18 20 19 19 16 15 15 15 15 16 18 15 10 13 14 11 10 10 9 10 13 14 14 15 23 24 22 18 18 14 14 14 12 9 6 2 7 11 14 12 7 11 8 10 6 7 1 3 6 7 6 8 7 7
Wind_Direction
133 148 129 153 153 162 185 226 270 172 218 208 203 202 210 210 217 219 212 216 213 200 199 187 195 201 196 233 235 210 202 128 140 157 165 161 165 174 163 161 164 167 169 168 171 173 175 168 165 165 162 163 160 164 152 146 150 145 152 131 127 117 95 67 73 114 107 106 108 107 104 100 96 93 90 86 82 79 78 77 75 72 68 66 64
123 130 133 157 154 161 189 228 186 120 135 278 264 205 213 217 225 217 221 230 233 224 184 180 191 201 175 194 220 196 219 134 155 166 169 165 165 172 171 168 171 172 175 170 177 174 180 167 174 174 175 175 169 168 170 156 161 162 154 148 145 134 111 83 108 121 111 112 113 110 105 101 98 96 93 90 88 86 84 82 79 74 71 69 67
128 127 152 163 143 162 207 226 202 166 158 201 325 282 222 232 226 218 223 220 237 209 177 158 182 199 206 184 185 174 183 185 150 154 164 174 170 176 179 175 177 176 179 181 175 179 181 178 184 180 186 181 180 174 175 177 172 170 164 162 158 155 123 92 120 120 119 119 118 115 109 105 103 100 98 96 94 92 90 85 81 78 75 71 68
150 164 160 139 163 168 190 222 223 179 172 208 254 305 290 269 261 244 233 211 219 204 177 154 159 182 192 228 179 183 198 209 161 158 158 172 178 178 179 184 182 178 186 190 182 182 183 186 187 186 189 188 187 185 180 181 179 169 173 163 165 170 160 115 135 131 128 125 121 117 113 110 109 106 104 101 99 97 92 87 81 80 78 74 70
180 192 200 160 157 167 158 200 204 188 138 243 240 265 326 299 285 269 268 260 177 214 164 126 140 163 158 194 204 200 194 170 198 137 164 172 176 175 180 188 184 186 187 184 193 179 190 191 189 187 190 185 188 196 189 184 177 180 177 173 172 185 175 147 147 138 133 131 127 122 119 117 116 114 111 108 104 100 95 90 85 82 80 78 74
191 177 169 144 117 106 62 132 170 171 153 168 283 289 274 271 282 294 268 260 179 210 141 143 151 168 179 183 182 201 201 177 181 159 160 161 178 179 177 184 188 185 187 193 191 187 192 195 196 186 190 186 186 195 190 200 177 183 185 183 184 194 188 168 153 137 137 140 135 128 125 123 121 120 116 111 107 102 98 94 91 86 83 80 77
173 161 142 142 98 152 222 214 213 196 158 153 196 230 245 252 271 297 271 231 166 220 167 170 187 197 205 199 196 183 203 188 169 191 154 170 166 179 178 177 184 191 193 189 200 194 194 191 195 188 194 191 193 186 192 202 189 186 189 188 190 197 199 182 156 145 146 144 140 135 131 128 126 124 121 116 112 107 103 101 97 92 86 83 81
159 152 158 167 151 191 235 219 219 203 175 177 188 208 208 282 262 235 277 265 247 196 190 189 188 188 207 217 182 175 169 194 190 208 196 157 174 175 181 178 182 189 191 188 197 201 199 198 188 194 187 201 194 191 196 196 193 193 194 194 194 194 197 178 160 153 151 151 146 142 137 133 132 130 127 122 118 113 109 105 100 96 91 88 85
151 142 150 158 98 15 240 233 200 190 162 187 183 217 202 298 287 269 263 279 248 262 211 208 193 190 199 218 198 160 164 185 209 216 204 180 169 179 176 184 186 186 188 193 188 197 204 201 198 197 200 200 196 198 201 201 195 194 197 197 196 195 200 181 167 159 157 155 151 147 141 138 137 134 130 126 122 118 115 110 105 99 96 93 89
122 120 135 120 124 155 272 228 222 210 137 263 222 197 180 230 275 297 305 305 284 26 333 132 320 295 271 237 228 160 169 175 201 225 225 217 216 177 184 182 183 183 188 192 189 190 197 200 199 198 199 192 194 203 203 204 199 193 196 199 199 201 197 189 172 163 161 160 156 149 144 142 141 138 135 131 127 123 120 116 110 105 100 97 93
40 336 57 132 126 145 181 261 298 185 189 242 242 202 191 211 237 305 316 311 322 113 201 23 50 30 30 240 248 215 184 177 175 203 228 227 208 211 173 181 182 185 188 190 191 189 191 193 192 190 198 190 195 201 204 205 205 200 195 200 204 205 204 191 171 167 166 164 160 151 147 147 144 143 140 135 132 129 125 119 115 111 107 102 97
360 64 17 34 118 142 138 191 236 319 151 190 221 210 182 192 210 245 278 299 290 120 112 67 11 19 257 278 224 226 209 190 183 182 203 229 229 211 211 183 185 188 188 188 187 187 188 187 190 189 188 196 195 198 203 205 205 209 199 198 202 207 211 200 173 170 169 167 164 156 152 150 148 147 144 140 137 133 129 125 120 117 113 107 102
187 97 91 279 160 143 146 188 185 214 178 227 170 183 197 152 188 187 221 244 279 246 116 109 50 345 327 326 312 240 217 207 216 200 193 206 220 222 219 198 202 193 185 183 183 185 185 186 187 186 191 190 198 198 204 208 207 211 209 201 202 205 212 207 187 174 173 171 170 162 157 153 152 151 148 144 140 137 134 129 126 122 118 114 109
2 301 184 173 194 176 185 203 177 185 187 172 190 218 225 288 238 234 214 215 247 244 227 77 25 145 25 337 328 330 261 221 225 228 213 205 204 209 216 213 201 202 196 175 179 182 184 184 185 187 188 189 193 194 202 211 217 213 218 210 204 205 211 211 194 184 175 172 173 168 161 158 157 155 151 148 144 140 137 136 133 129 125 122 117
360 1 347 321 325 334 280 183 177 147 169 203 182 202 208 226 220 213 245 297 271 258 202 177 197 127 118 79 307 352 326 282 270 246 228 219 215 216 212 212 216 194 191 192 179 180 181 181 184 187 188 188 190 195 197 199 204 207 211 214 208 207 212 211 201 191 176 172 178 171 166 162 160 158 155 152 149 146 144 142 140 136 131 126 121
20 1 4 16 52 66 33 35 89 143 180 251 267 233 211 203 217 216 184 224 237 268 203 190 175 129 259 188 217 156 281 267 238 245 219 219 211 220 218 224 223 213 175 193 198 180 181 178 185 187 189 190 191 193 196 198 203 203 207 211 206 206 213 212 214 195 180 174 182 176 171 166 163 162 159 155 154 153 151 149 145 142 138 132 126
19 343 25 18 360 32 37 39 24 8 27 28 222 238 235 227 205 196 196 212 235 238 253 199 204 197 169 137 160 232 215 254 245 270 235 238 228 220 218 223 221 221 198 197 195 190 179 184 188 191 192 189 190 193 194 199 202 203 206 209 207 207 209 210 213 199 188 183 184 180 174 169 165 164 161 159 159 159 157 153 149 146 143 139 132
336 4 20 16 7 5 37 30 8 1 358 345 323 319 287 237 233 216 223 218 225 229 244 246 222 215 228 230 176 176 174 193 71 276 300 221 229 226 221 220 220 212 216 204 195 197 187 183 189 196 196 191 190 192 193 196 198 201 198 203 205 201 198 210 216 205 191 186 187 183 178 173 168 167 164 163 164 163 160 157 153 152 150 146 139
198 91 353 8 15 18 9 4 356 349 332 353 335 308 301 283 246 210 221 222 195 237 244 249 272 267 230 242 266 267 180 126 213 305 306 311 253 232 235 224 218 216 215 217 209 198 199 191 185 195 198 189 190 193 193 196 197 197 196 196 198 196 192 200 220 208 197 185 190 185 180 178 172 169 168 167 166 166 164 162 159 158 156 152 148
177 174 183 127 12 10 25 27 8 349 354 347 324 311 327 331 323 279 251 219 198 214 243 233 227 250 229 237 258 267 258 253 240 228 241 290 292 280 245 236 221 220 217 217 212 206 194 199 198 197 188 183 187 190 190 192 196 198 200 196 194 195 191 193 202 197 205 185 192 188 182 182 178 173 171 169 168 169 168 167 166 163 161 160 158
157 175 175 177 213 29 31 3 356 344 345 339 340 341 337 332 331 333 323 257 214 242 249 247 225 245 254 240 234 236 252 247 250 241 240 246 269 257 251 243 236 240 226 218 211 204 197 201 204 203 193 184 184 188 187 189 192 195 197 193 192 192 191 191 191 188 197 189 192 191 187 184 184 178 174 171 171 172 172 172 171 168 166 168 169
202 135 172 193 141 100 13 354 338 333 336 331 328 332 336 344 348 344 337 322 285 231 223 234 235 244 233 242 247 254 241 247 238 236 241 233 246 273 287 251 246 244 226 229 219 205 200 203 209 206 197 192 189 188 187 190 190 191 196 191 190 188 188 187 185 186 181 195 189 195 193 189 187 184 177 175 175 176 177 177 175 172 171 175 175
186 165 162 167 157 143 158 329 333 324 324 315 307 308 317 330 330 338 336 332 325 301 265 241 233 235 238 233 238 232 239 237 239 230 224 227 230 249 257 261 240 269 262 229 223 218 202 195 202 207 199 197 195 189 183 185 186 194 193 190 187 185 185 185 183 182 175 190 186 196 197 192 190 188 183 180 179 179 181 180 180 177 176 178 178
176 175 192 201 171 179 183 199 237 265 276 285 299 310 319 336 336 329 321 322 322 326 315 289 256 249 242 239 244 240 240 236 232 237 226 236 239 252 248 249 258 236 282 339 272 242 235 210 203 200 194 196 197 191 190 184 182 184 186 189 185 185 184 184 183 179 176 184 187 196 198 194 193 192 191 186 183 183 183 183 182 180 178 179 178
199 183 205 177 140 123 120 198 302 314 317 330 326 333 333 329 324 313 308 310 311 316 311 300 291 269 256 233 232 251 254 249 245 229 225 243 236 253 250 228 240 275 285 328 295 297 239 235 215 211 199 193 192 188 189 190 197 181 182 186 183 185 185 185 181 175 176 183 186 192 198 195 192 196 195 192 188 186 187 185 182 178 177 181 180
178 167 162 140 122 135 118 127 152 3 356 353 346 341 337 323 314 314 309 303 308 303 296 294 289 274 268 265 248 237 240 248 253 247 228 212 230 236 246 237 217 246 277 42 292 284 296 254 228 208 206 199 194 190 186 192 195 179 181 174 185 185 184 183 180 174 175 182 186 190 196 195 190 194 195 195 192 189 187 180 177 172 174 178 177
163 202 166 146 157 130 125 47 350 326 317 313 311 321 320 325 319 320 317 317 312 309 302 303 302 304 295 270 255 249 247 243 241 249 241 227 222 218 203 239 259 248 248 236 226 218 243 282 265 246 224 207 200 192 191 192 191 179 177 173 180 185 180 180 181 175 176 183 185 189 192 194 188 187 193 193 191 188 184 175 168 167 168 166 166
152 126 151 146 149 166 161 219 244 249 252 246 260 294 304 303 297 297 301 309 311 309 303 305 304 303 300 297 282 261 246 242 237 239 242 244 233 227 222 226 243 261 243 249 223 246 216 236 272 254 226 220 217 206 201 191 189 176 174 168 169 179 180 179 180 176 175 182 184 187 190 191 188 183 186 191 188 184 175 165 161 158 155 152 149
144 130 144 148 163 164 192 227 244 242 239 234 226 230 239 265 276 281 283 296 304 308 313 309 306 306 303 299 292 284 266 251 245 238 241 243 246 233 220 222 215 234 258 261 249 241 261 205 239 247 248 206 214 224 205 196 188 175 176 168 170 173 183 180 180 176 176 180 182 186 190 192 185 183 184 187 183 176 171 167 163 162 160 157 157
162 195 154 144 148 193 214 246 259 268 262 261 256 248 234 234 241 258 270 290 299 302 303 305 301 302 295 295 295 291 280 262 252 243 235 231 231 235 243 228 200 217 225 239 255 207 251 234 207 243 256 251 212 213 215 203 187 178 174 172 171 177 180 184 182 179 177 179 181 182 185 190 187 181 185 185 177 174 173 171 168 167 165 162 161
154 144 160 220 242 248 230 224 235 256 263 254 243 236 226 242 247 250 258 273 282 284 291 299 300 297 291 286 286 285 286 276 259 250 243 240 239 226 230 232 232 219 222 233 253 239 198 246 244 227 218 212 198 193 222 224 194 184 176 171 175 175 178 185 183 180 180 182 179 177 180 183 188 186 184 182 178 175 176 175 170 168 166 163 161
164 172 185 209 221 233 233 225 227 244 263 275 273 275 279 271 266 273 270 270 272 275 283 286 294 297 299 295 290 285 290 292 281 260 249 235 229 231 232 237 240 224 218 233 236 254 209 221 224 241 183 121 113 136 199 226 215 196 164 165 168 163 176 184 186 183 182 182 180 174 175 178 181 183 183 181 178 176 176 175 172 168 167 164 162
176 198 216 225 232 225 223 225 231 237 241 253 252 245 250 262 270 267 275 273 275 276 274 280 280 289 293 294 295 295 295 291 289 284 272 260 241 225 222 226 229 234 229 225 234 248 255 201 227 202 194 134 112 142 152 180 179 169 140 151 152 166 173 178 182 189 184 181 182 176 174 175 178 179 178 179 178 175 174 173 171 168 166 165 166
176 209 221 226 217 222 233 242 242 241 238 235 242 230 240 259 276 274 284 282 280 280 286 289 288 285 288 295 299 302 302 296 296 294 291 270 253 250 236 224 229 229 221 230 231 236 254 213 228 219 194 177 129 146 173 171 201 156 150 149 154 161 171 169 175 187 189 183 182 183 174 173 175 177 177 175 175 175 173 171 170 169 168 167 170
216 211 228 240 246 235 230 235 232 238 238 245 249 237 245 249 259 265 259 270 277 285 287 286 288 289 285 281 285 293 295 297 296 293 294 294 283 262 252 232 228 228 220 218 227 234 244 248 202 217 197 200 177 182 177 155 137 163 152 162 161 161 163 172 178 181 186 181 176 179 179 174 171 173 175 175 175 175 173 170 170 170 171 172 174
217 238 229 232 233 240 245 256 254 253 254 249 252 236 240 245 252 258 261 261 266 271 275 279 281 284 283 287 287 289 294 292 293 293 292 290 291 284 264 259 249 231 221 216 218 231 240 254 211 206 203 187 210 174 159 143 153 163 180 147 148 157 159 172 178 175 177 176 175 173 170 171 170 170 172 175 176 176 175 173 170 171 176 177 175
223 231 269 279 278 272 262 261 268 267 260 259 258 263 260 255 257 263 267 267 264 265 267 270 274 275 280 283 287 290 293 294 293 292 290 289 288 287 285 267 251 253 242 219 219 219 235 241 240 210 191 201 195 173 157 149 157 155 112 177 177 162 154 154 159 158 165 175 178 176 173 170 171 172 173 175 176 177 175 173 175 177 178 177 176
228 239 240 305 303 297 307 311 318 312 306 298 287 278 272 271 276 279 277 274 272 270 270 274 278 278 281 283 285 284 281 279 285 289 292 291 290 286 286 284 270 254 256 252 226 216 223 234 241 240 230 207 213 188 176 160 154 148 138 129 114 165 155 149 150 147 124 169 135 175 175 171 170 172 175 177 178 178 178 178 180 181 178 179 178
192 217 253 292 297 284 281 295 301 297 297 293 292 285 284 283 283 286 287 287 286 282 276 272 270 270 270 270 272 275 278 279 280 284 292 295 294 292 289 287 287 277 260 256 255 238 221 226 235 233 224 231 200 176 180 165 162 166 159 145 166 197 198 167 147 128 170 181 200 183 176 173 172 174 180 181 182 181 179 180 181 182 181 181 180
187 211 251 263 267 280 287 307 308 316 313 314 307 300 289 285 282 277 278 278 279 278 276 271 270 269 267 264 263 267 269 274 280 284 287 291 301 301 303 312 309 303 285 258 245 247 238 224 227 229 224 214 205 221 143 140 138 148 183 171 177 179 190 180 171 166 175 178 170 182 183 164 173 179 181 183 183 179 180 183 185 182 184 182 182
185 213 222 216 242 273 308 332 335 338 335 319 312 307 307 302 297 293 290 286 283 282 280 278 276 277 279 276 271 265 261 260 262 265 269 274 284 288 290 292 294 299 302 301 283 261 259 250 238 230 228 213 213 151 159 176 177 182 182 185 179 164 162 171 164 135 173 174 174 176 182 178 171 180 165 176 189 184 188 184 180 181 182 183 184
221 238 238 246 244 183 125 307 312 318 307 300 303 307 309 308 309 307 304 301 299 296 292 289 282 277 274 276 277 282 287 284 275 267 265 265 264 267 279 284 282 284 285 290 287 280 264 251 246 237 230 219 183 186 176 192 189 153 154 171 169 166 143 130 87 216 168 172 170 183 195 193 181 177 182 192 185 183 187 185 193 183 182 181 185
223 223 221 220 178 197 233 253 275 279 276 274 282 286 297 306 307 299 297 295 295 292 291 288 287 284 279 274 272 272 272 275 278 275 268 264 265 264 263 266 266 260 270 269 271 275 275 272 265 243 229 210 197 193 194 186 184 173 177 180 174 158 170 169 195 183 196 178 190 183 193 189 182 186 186 192 183 189 190 192 178 180 178 181 187
240 233 212 184 203 249 254 260 265 263 256 259 268 272 276 279 280 287 290 291 288 287 286 285 285 286 285 283 277 274 267 265 264 269 276 281 282 278 271 264 264 265 251 245 258 264 258 263 264 261 256 230 218 196 196 181 189 182 186 176 173 177 175 195 192 192 192 176 175 186 195 171 184 188 193 200 193 196 199 185 180 174 182 189 193
241 256 171 126 234 265 283 285 277 270 267 262 263 264 263 262 266 269 273 271 274 274 274 275 277 279 281 281 281 274 272 266 265 264 263 267 275 284 286 279 266 257 261 251 237 242 258 251 255 258 254 251 227 213 200 192 183 186 177 180 182 191 195 193 200 193 157 177 163 177 194 185 183 195 201 198 193 192 194 187 183 181 187 192 195
180 140 176 298 307 293 275 271 274 274 274 274 271 269 265 264 266 270 276 278 279 277 276 275 274 273 271 273 275 273 271 270 264 262 259 261 265 269 274 278 280 271 255 250 244 234 233 242 245 247 247 246 244 209 214 202 185 186 181 195 191 195 199 207 179 96 94 156 178 180 188 189 191 190 204 197 181 184 195 188 186 190 190 191 197
132 158 173 351 325 314 304 298 295 290 281 283 283 281 280 280 281 282 275 275 276 278 277 275 273 271 271 268 267 267 267 267 266 266 267 266 266 266 268 274 279 283 288 288 274 244 229 229 236 240 245 239 244 212 200 214 212 195 193 194 190 190 148 73 73 110 143 190 184 160 206 183 173 195 211 185 176 186 185 184 188 195 195 196 198
82 76 26 47 331 317 304 306 301 293 289 290 295 300 297 289 279 271 268 270 275 276 277 276 274 273 272 269 269 266 265 262 261 259 260 263 265 264 263 262 268 276 277 271 274 284 274 241 227 230 234 232 228 215 193 186 197 186 39 44 86 120 153 162 166 168 170 181 182 189 196 181 183 198 199 166 165 186 180 188 193 196 199 199 199
98 79 59 334 310 306 302 301 300 293 293 295 299 298 295 292 289 282 283 284 282 282 278 279 276 274 271 268 265 266 264 263 259 254 254 252 259 259 259 260 260 264 269 275 278 279 280 271 251 240 231 230 225 214 194 187 188 156 128 123 165 157 167 191 181 161 199 170 192 201 176 173 183 185 177 178 181 184 181 192 191 199 199 200 199
87 71 306 330 303 295 299 300 294 299 295 292 293 294 293 291 287 288 287 287 285 284 284 278 278 276 272 269 271 268 265 262 259 253 250 245 252 253 255 257 258 256 262 272 280 273 272 274 269 250 241 231 223 211 196 188 175 156 164 183 180 170 197 196 195 193 147 176 193 179 187 205 145 175 164 140 140 197 186 186 182 194 199 199 198
139 180 180 269 266 271 268 276 285 288 287 285 281 280 281 285 288 289 290 291 291 288 286 284 279 278 277 272 268 264 262 262 258 253 246 241 249 250 251 253 254 253 254 267 272 275 284 295 290 280 257 247 236 218 204 190 177 178 183 189 170 180 190 196 183 127 135 226 195 178 189 179 156 175 162 140 195 174 160 169 176 171 179 180 180